Regional Weather Roundup
Issued by NWS

Home | Current Version | Previous Version | Graphics & Text | Print | Product List | Glossary On
Versions: 1 2 3 4 5 6 7 8 9 10 11 12 13 14 15 16 17 18 19 20 21 22 23 24 25 26 27 28 29 30 31 32 33 34 35 36 37 38 39 40 41 42 43 44 45 46 47 48 49 50
000
ASUS43 KOAX 111310
RWRNE

WEATHER ROUNDUP FOR NEBRASKA
NATIONAL WEATHER SERVICE OMAHA NE
700 AM CST THU FEB 11 2016

NOTES: SATELLITE DATA IS BEING USED TO AUGMENT CLOUD COVER ABOVE
       12000 FEET.
       "FAIR" INDICATES FEW OR NO CLOUDS BELOW 12,000 FEET WITH NO
       SIGNIFICANT WEATHER AND/OR OBSTRUCTIONS TO VISIBILITY.

  * THESE STATIONS DO NOT REPORT WEATHER SUCH AS RAIN...SNOW OR FOG.

NEZ001>004-019>022-054>056-111400-
NEBRASKA PANHANDLE

CITY           SKY/WX    TMP DP  RH WIND       PRES   REMARKS
SCOTTSBLUFF    CLOUDY    33  24  69 N3        30.07F
ALLIANCE       CLOUDY    28  23  81 W7        30.04F WCI  21
CHADRON        CLOUDY    30  26  85 SW8       30.04S WCI  22
KIMBALL        CLOUDY    37  24  60 W15       30.11F WCI  27
SIDNEY         CLOUDY    36  25  64 W12       30.09F WCI  28
$$

NEZ057>060-069>072-079>082-111400-
SOUTHWEST NEBRASKA

CITY           SKY/WX    TMP DP  RH WIND       PRES   REMARKS
NORTH PLATTE   CLOUDY    27  25  92 SE6       30.13S FOG     WCI  20
IMPERIAL         N/A     25  21  85 SW5       30.13S WCI  19
LEXINGTON      CLOUDY    30  27  90 SE3       30.15F
MCCOOK         CLOUDY    25  22  88 SE5       30.17S WCI  19
OGALLALA       CLOUDY    24  23  93 CALM      30.11S
$$

NEZ005>010-023>029-035>040-094-111400-
NORTH CENTRAL NEBRASKA

CITY           SKY/WX    TMP DP  RH WIND       PRES   REMARKS
VALENTINE      CLOUDY    28  26  92 SE6       30.09F WCI  22
AINSWORTH      CLOUDY    28  25  90 CALM      30.13S
BROKEN BOW     CLOUDY    30  27  88 CALM      30.14S
O`NEILL        CLOUDY    25  23  95 SE6       30.17F WCI  18
ORD            CLOUDY    27  24  89 SE6       30.17R WCI  20
THEDFORD       FOG       30  30  99 S3        30.11S VSB 1
$$

NEZ041-046>049-061>064-073>077-083>087-111400-
SOUTH CENTRAL NEBRASKA

CITY           SKY/WX    TMP DP  RH WIND       PRES   REMARKS
GRAND ISLAND   CLOUDY    25  21  85 E9        30.19F WCI  15
AURORA         CLOUDY    24  22  93 E7        30.21R FOG     WCI  16
HASTINGS       CLOUDY    26  22  84 E6        30.19F WCI  19
HEBRON         CLOUDY    22  19  90 NE5       30.25S WCI  15
HOLDREGE       CLOUDY    28  26  91 CALM      30.18S
KEARNEY *      CLOUDY    28  25  86 CALM      30.18R
YORK           CLOUDY    23  21  93 E9        30.23S WCI  13
$$

NEZ011>018-030>034-042>045-111400-
NORTHEAST NEBRASKA

CITY           SKY/WX    TMP DP  RH WIND       PRES   REMARKS
NORFOLK        CLOUDY    19  14  81 E7        30.23S WCI  10
ALBION         CLOUDY    22  19  89 E5        30.22R FOG     WCI  16
BLAIR          CLOUDY    15   5  65 E6        30.27R WCI   6
COLUMBUS *     CLOUDY    19   9  63 E7        30.26R WCI  10
FREMONT        CLOUDY    17  10  74 E5        30.29R WCI   9
TEKAMAH        CLOUDY    15   4  61 E3        30.32R
WAYNE          CLOUDY    17  12  82 SE6       30.26S WCI   8
$$

NEZ050>053-065>068-078-088>093-111400-
SOUTHEAST NEBRASKA

CITY           SKY/WX    TMP DP  RH WIND       PRES   REMARKS
LINCOLN        CLOUDY    19  14  81 NE7       30.29R WCI  10
OMAHA EPPLEY   CLOUDY    14   2  58 CALM      30.32R
BEATRICE       CLOUDY    20  19  94 N8        30.27R FOG     WCI  10
FALLS CITY     CLOUDY    21  17  84 NE7       30.29R WCI  12
NEBRASKA CITY  CLOUDY    17  15  89 NE9       30.28S WCI   6
PLATTSMOUTH    CLOUDY    14   9  79 NE6       30.28S WCI   5
$$

NEZ044-045-051>053-067-111400-
OMAHA AREA

CITY           SKY/WX    TMP DP  RH WIND       PRES   REMARKS
OMAHA EPPLEY   CLOUDY    14   2  58 CALM      30.32R
BLAIR          CLOUDY    15   5  65 E6        30.27R WCI   6
FREMONT        CLOUDY    17  10  74 E5        30.29R WCI   9
MILLARD        CLOUDY    17   6  64 NE3       30.30S
OFFUTT AFB     CLOUDY    15   6  69 NE6       30.30R WCI   6
PLATTSMOUTH    CLOUDY    14   9  79 NE6       30.28S WCI   5
WAHOO          CLOUDY    18  11  77 E6        30.29R WCI   9
$$



USA.gov is the U.S. government's official web portal to all federal, state and local government web resources and services.